Regional Weather Roundup
Issued by NWS Sterling, VA

Home | Current Version | Previous Version | Graphics & Text | Print | Product List | Glossary On
Versions: 1 2 3 4 5 6 7 8 9 10 11 12 13 14 15 16 17 18 19 20 21 22 23 24 25 26 27 28 29
000
ASUS41 KLWX 291210
RWRLWX

REGIONAL WEATHER ROUNDUP
NATIONAL WEATHER SERVICE BALTIMORE MD/WASHINGTON DC
800 AM EDT WED OCT 29 2014

Note: "FAIR" indicates few or no clouds below 12,000 feet
with no significant weather and/or obstructions to visibility.
 TC=TEMPERATURE CELSIUS

 * =Non NWS site. Station does not report precipitation (e.g. rain,
    snow, etc.), thunder, or fog.

DCZ001-MDZ009-015-VAZ040>042-051-053>054-291300-
WASHINGTON METRO

CITY           SKY/WX    TMP DP  RH WIND       PRES   REMARKS
WASHINGTON NAT CLOUDY    63  58  83 S6        29.92S
DULLES         CLOUDY    59  54  83 NW5       29.94R
ANDREWS AFB    CLOUDY    60  57  92 S5        29.91S
FT BELVOIR     CLOUDY    57  55  95 NW3       29.93R
QUANTICO       CLOUDY    62  58  86 CALM      29.93S
COLLEGE PARK*  CLOUDY    59  59 100 CALM      29.91S
LEESBURG*      CLOUDY    61  54  77 N7        29.94R
GAITHERSBURG*  CLOUDY    57  54  88 NW5       29.97R

$$

MDZ006>007-011-014-291300-
BALTIMORE METRO

CITY           SKY/WX    TMP DP  RH WIND       PRES   REMARKS
BWI AIRPORT    CLOUDY    59  57  93 CALM      29.91S
MD SCIENCE CTR   N/A     62  58  86 MISG      29.91S
MARTIN STATE   PTCLDY    55  55 100 CALM      29.92S
ANNAPOLIS      CLOUDY    61  58  90 E3        29.91S
FORT MEADE*    CLOUDY    54  52  94 CALM      29.93S

$$

MDZ012-015-019>023-291300-
MARYLAND EASTERN SHORE

CITY           SKY/WX    TMP DP  RH WIND       PRES   REMARKS
OCEAN CITY     MOCLDY    64  60  87 SW9       29.95S
SALISBURY      CLOUDY    65  59  81 S9        29.94S
BAY BRIDGE AP*   N/A     61  59  94 S5        29.92S
CAMBRIDGE*     MOCLDY    63  57  82 S5        29.92S
EASTON*        MOCLDY    61  61 100 CALM      29.96S

$$

MDZ017>025-291300-
SOUTHERN MARYLAND

CITY           SKY/WX    TMP DP  RH WIND       PRES   REMARKS
PATUXENT RIVER CLOUDY    64  57  78 S7        29.92S
ST INIGOES     MOCLDY    65  56  72 S13       29.92S
LEONARDTOWN*   MOCLDY    63  55  77 SW6       29.94R

$$

MDZ003>005-291300-
NORTH CENTRAL MARYLAND

CITY           SKY/WX    TMP DP  RH WIND       PRES   REMARKS
FREDERICK*     CLEAR     64  52  63 VRB3      29.96R
HAGERSTOWN APT CLOUDY    58  48  69 NW8       29.96R
WESTMINSTER*   CLOUDY    63  48  59 W12G21    29.93R

$$

MDZ501>502-291300-
WESTERN MARYLAND

CITY           SKY/WX    TMP DP  RH WIND       PRES   REMARKS
OAKLAND*       CLOUDY    45 N/A N/A W9G16     29.99S HAZE
CUMBERLAND*    CLOUDY    52  50  93 CALM      30.02S

$$

VAZ025>031-291300-
SHENANDOAH VALLEY

CITY           SKY/WX    TMP DP  RH WIND       PRES   REMARKS
WINCHESTER*    CLOUDY    61  45  55 NW6       29.95S
FRONT ROYAL*   FAIR      59  50  72 CALM      29.94R
LURAY*         PTSUNNY   61  54  77 NE3       29.94R
NEW MARKET*    CLOUDY    55  50  86 CALM      29.94S
STAUNTON*      CLOUDY    58  51  77 CALM      29.96S
WAYNESBORO*    FAIR      63  52  68 SW6       29.95S

$$

WVZ021-048>050-054>055-291300-
EASTERN WEST VIRGINIA PANHANDLE

CITY           SKY/WX    TMP DP  RH WIND       PRES   REMARKS
MARTINSBURG    CLOUDY    60  48  64 NW9       29.96R
PETERSBURG*    RAIN      55  52  89 CALM      29.99R

$$

VAZ036>039-050-291300-
CENTRAL FOOTHILLS

CITY           SKY/WX    TMP DP  RH WIND       PRES   REMARKS
CHARLOTTESVILL CLOUDY    61  54  77 CALM      29.92S
CULPEPER*      CLOUDY    57  55  94 N3        29.94R FOG
ORANGE*        CLOUDY    61  55  82 S6        29.94R
GORDONSVILLE*  FAIR      58  56  92 CALM      29.92S
WARRENTON*     FAIR      58  58 100 CALM      29.92R

$$

VAZ055>057-291300-
NORTH AND CENTRAL PIEDMONT

CITY           SKY/WX    TMP DP  RH WIND       PRES   REMARKS
FREDERICKSBRG* CLOUDY    65  58  79 CALM      29.92R
STAFFORD*      CLOUDY    59  59 100 CALM      29.96S

$$

NCZ024-NYZ072-PAZ021-071-VAZ022-071-291300-
OTHER REGIONAL OBSERVATIONS

CITY           SKY/WX    TMP DP  RH WIND       PRES   REMARKS
NEW YORK CITY  MOCLDY    64  56  75 CALM      29.90S
PHILADELPHIA   MOCLDY    61  56  83 SW5       29.91R
PITTSBURGH     CLOUDY    50  45  83 W7        29.98S
ROANOKE        CLOUDY    61  53  75 W3        29.99S
RICHMOND       CLOUDY    62  58  86 S6        29.95F
RALEIGH        MOCLDY    62  56  80 SW10      30.03S

$$

ANZ530>537-291300-
MARINE OBSERVATIONS

STATION/POSITION TIME  TEMP    WIND        PRES
                       AIR SEA DIR/SP/G
                 (UTC) (F)     (DEG/KT/KT) (MB)
THOMAS PT LIGHT  1200   65 62  180/  7/  9 1014.1R
BALT KEY BRIDGE  1200   63     130/  3/  4 1012.3F
COVE POINT       1200   66     230/ 11/ 14 1012.8R
LEWISETTA        1200   66 62  220/ 13/ 17 1013.0S
SOLOMONS ISLAND  1200      63                N/A
PINEY POINT      1200          240/ 12/ 14   N/A

$$




USA.gov is the U.S. government's official web portal to all federal, state and local government web resources and services.